EXS35FC EGSS-LCLK

Flight info

Callsign EXS35FC
Flight time N/A
Altitude 37000
Route CLN M84 KONAN DCT KOK DCT SISGA DCT RITAX DCT KRH DCT UTABA DCT BEMKI DCT ELMEM DCT DIRAB DCT NIVAS DCT PEVAL DCT NAKIT DCT PUL DCT SIPAL DCT PINDO DCT LUSES DCT NEVRA DCT AKINA UL995 RDS UM601 EVENO DCT DASNI M601 BONEK
Aircraft B738/M-SDE2E3FGHIRWXY/LB1

Departure

Time 2026-05-04 13:00
Airport London Stansted Airport (EGSS)

Arrival

Time N/A
Airport Larnaca International Airport (LCLK)
Time Latitude Longitude Altitude Speed Heading
2026-05-04 12:42 51.89024 0.25366 354 ft 0 kts 222°
2026-05-04 12:50 51.89042 0.25393 358 ft 4 kts 222°
2026-05-04 12:51 51.89056 0.25416 358 ft 4 kts 250°
2026-05-04 12:51 51.89054 0.25450 358 ft 4 kts 310°
2026-05-04 12:51 51.89037 0.25479 355 ft 2 kts 313°
2026-05-04 12:51 51.89036 0.25481 354 ft 1 kts 313°
2026-05-04 12:53 51.89042 0.25471 357 ft 7 kts 313°
2026-05-04 12:53 51.89125 0.25328 348 ft 26 kts 311°
2026-05-04 12:53 51.89095 0.25145 351 ft 19 kts 226°
2026-05-04 12:53 51.88948 0.24933 348 ft 36 kts 221°
2026-05-04 12:54 51.88762 0.24656 348 ft 36 kts 223°
2026-05-04 12:54 51.88582 0.24384 350 ft 34 kts 222°
2026-05-04 12:54 51.88395 0.24105 348 ft 41 kts 223°
2026-05-04 12:54 51.88191 0.23798 350 ft 40 kts 223°
2026-05-04 12:55 51.87997 0.23507 348 ft 37 kts 223°
2026-05-04 12:55 51.87883 0.23336 356 ft 0 kts 223°
2026-05-04 12:55 51.87872 0.23319 355 ft 14 kts 223°
2026-05-04 12:55 51.87745 0.23122 348 ft 27 kts 236°
2026-05-04 12:56 51.87760 0.22857 355 ft 24 kts 231°
2026-05-04 12:56 51.87641 0.22677 350 ft 23 kts 223°
2026-05-04 12:56 51.87527 0.22502 348 ft 23 kts 233°
2026-05-04 12:56 51.87561 0.22354 338 ft 11 kts 314°
2026-05-04 12:57 51.87577 0.22327 335 ft 0 kts 315°
2026-05-04 12:58 51.87583 0.22318 335 ft 8 kts 315°
2026-05-04 12:58 51.87693 0.22281 333 ft 20 kts 25°
2026-05-04 12:59 51.87726 0.22320 338 ft 0 kts 43°
2026-05-04 13:00 51.87837 0.22485 338 ft 62 kts 43°
2026-05-04 13:00 51.88369 0.23283 338 ft 143 kts 43°
2026-05-04 13:00 51.89249 0.24588 629 ft 193 kts 41°
2026-05-04 13:00 51.90234 0.26063 1804 ft 185 kts 42°
2026-05-04 13:01 51.91116 0.27541 2867 ft 193 kts 55°
2026-05-04 13:01 51.91675 0.29658 3207 ft 220 kts 81°
2026-05-04 13:01 51.91540 0.32218 3590 ft 237 kts 110°
2026-05-04 13:01 51.90813 0.34709 3965 ft 258 kts 117°
2026-05-04 13:02 51.90001 0.37345 3946 ft 261 kts 116°
2026-05-04 13:02 51.89202 0.40004 3971 ft 264 kts 116°
2026-05-04 13:02 51.88402 0.42681 3980 ft 264 kts 116°
2026-05-04 13:02 51.87609 0.45362 3982 ft 264 kts 115°
2026-05-04 13:03 51.86823 0.48038 3976 ft 264 kts 115°
2026-05-04 13:03 51.86034 0.50724 3976 ft 264 kts 115°
2026-05-04 13:03 51.85246 0.53407 3979 ft 264 kts 115°
2026-05-04 13:03 51.84466 0.56059 3978 ft 264 kts 115°
2026-05-04 13:04 51.83681 0.58747 3979 ft 265 kts 114°
2026-05-04 13:04 51.83134 0.61579 3969 ft 265 kts 100°
2026-05-04 13:04 51.82955 0.64543 3977 ft 265 kts 90°
2026-05-04 13:04 51.83029 0.67514 3974 ft 265 kts 86°
2026-05-04 13:05 51.83161 0.70506 4139 ft 270 kts 86°
2026-05-04 13:05 51.83302 0.73534 5078 ft 268 kts 86°
2026-05-04 13:05 51.83429 0.76546 6091 ft 270 kts 86°
2026-05-04 13:05 51.83551 0.79603 6954 ft 275 kts 86°
2026-05-04 13:06 51.83670 0.82739 7736 ft 282 kts 87°
2026-05-04 13:06 51.83784 0.85880 8589 ft 287 kts 87°
2026-05-04 13:06 51.83901 0.89133 9434 ft 292 kts 87°
2026-05-04 13:06 51.84020 0.92449 10219 ft 299 kts 87°
2026-05-04 13:07 51.84143 0.95914 10580 ft 321 kts 87°
2026-05-04 13:07 51.84276 0.99658 10788 ft 346 kts 87°
2026-05-04 13:07 51.84417 1.03676 10987 ft 370 kts 87°
2026-05-04 13:07 51.84562 1.07901 11477 ft 381 kts 88°
2026-05-04 13:08 51.84301 1.12179 12147 ft 385 kts 109°
2026-05-04 13:08 51.83058 1.15986 12958 ft 385 kts 129°
2026-05-04 13:08 51.81125 1.18947 13742 ft 385 kts 147°
2026-05-04 13:08 51.76757 1.23510 15137 ft 388 kts 149°
2026-05-04 13:09 51.68976 1.31577 17404 ft 399 kts 148°
2026-05-04 13:09 51.64020 1.35655 18611 ft 404 kts 165°
2026-05-04 13:09 51.58436 1.36697 19730 ft 407 kts 180°
2026-05-04 13:09 51.54055 1.36857 20561 ft 412 kts 179°
2026-05-04 13:10 51.51182 1.37014 21100 ft 415 kts 179°
2026-05-04 13:10 51.48287 1.37192 21623 ft 418 kts 179°
2026-05-04 13:10 51.45398 1.37812 22079 ft 425 kts 164°
2026-05-04 13:10 51.42728 1.39918 22585 ft 432 kts 147°
2026-05-04 13:11 51.40502 1.43192 23079 ft 440 kts 131°
2026-05-04 13:11 51.37483 1.49461 23733 ft 447 kts 129°
2026-05-04 13:11 51.22345 1.81303 27113 ft 452 kts 130°
2026-05-04 13:11 51.13978 1.98968 28624 ft 463 kts 120°
2026-05-04 13:12 51.12469 2.08958 29724 ft 468 kts 96°
2026-05-04 13:12 51.11611 2.29912 31330 ft 463 kts 99°
2026-05-04 13:12 51.11300 2.35017 31547 ft 465 kts 100°
2026-05-04 13:12 51.10964 2.40146 31790 ft 467 kts 101°
2026-05-04 13:13 51.10641 2.45285 32146 ft 466 kts 100°
2026-05-04 13:13 51.09677 2.62054 33295 ft 463 kts 102°
2026-05-04 13:13 51.07732 2.71419 33812 ft 446 kts 126°
2026-05-04 13:13 51.00644 2.91367 34985 ft 449 kts 124°
2026-05-04 13:14 50.88774 3.26779 36700 ft 454 kts 121°
2026-05-04 13:14 50.76783 3.62612 37305 ft 471 kts 122°
2026-05-04 13:14 50.64078 3.99214 37020 ft 476 kts 123°
2026-05-04 13:14 50.55017 4.26323 36839 ft 470 kts 118°
2026-05-04 13:15 50.52844 4.34314 36941 ft 466 kts 116°
2026-05-04 13:15 50.47740 4.52654 36365 ft 461 kts 115°
2026-05-04 13:15 50.40307 4.76886 36997 ft 457 kts 116°
2026-05-04 13:15 50.29168 5.12938 37143 ft 469 kts 116°
2026-05-04 13:16 50.17638 5.49824 37046 ft 476 kts 116°
2026-05-04 13:16 49.92660 6.22411 36984 ft 473 kts 122°
2026-05-04 13:17 49.83916 6.44317 36991 ft 468 kts 121°
2026-05-04 13:17 49.80621 6.52972 36999 ft 465 kts 120°
2026-05-04 13:18 49.77350 6.61600 37001 ft 464 kts 120°
2026-05-04 13:18 49.74071 6.70195 37003 ft 464 kts 121°
2026-05-04 13:19 49.71335 6.77328 37002 ft 465 kts 121°